K5TWC Weather Reports


Display with metric or nautical units.
time (UTC)temp
F
wind
direction
speed
MPH
gust
MPH
rain 1hr
in
rain 24hr
in
rain mn
in
humidity
%
barometer
mb
20260903023504 86 169 4.0 16.0 0.00 0.00 0.00 65 1014.0
20260903023014 86 117 8.0 16.0 0.00 0.00 0.00 64 1014.0
20260903022508 87 121 6.0 15.0 0.00 0.00 0.00 64 1013.9
20260903022010 87 116 6.0 15.0 0.00 0.00 0.00 64 1013.8
20260903021523 87 134 7.0 14.0 0.00 0.00 0.00 63 1013.6
20260903021011 88 164 5.0 12.0 0.00 0.00 0.00 63 1013.6
20260903020512 88 143 5.0 17.0 0.00 0.00 0.00 62 1013.5
20260903020036 88 137 7.0 17.0 0.00 0.00 0.00 62 1013.3
20260903015514 89 115 7.0 15.0 0.00 0.00 0.00 61 1013.3
20260903015014 89 134 6.0 15.0 0.00 0.00 0.00 60 1013.2
20260903014529 90 130 4.0 13.0 0.00 0.00 0.00 60 1013.0
20260903014015 90 159 7.0 13.0 0.00 0.00 0.00 59 1012.9
20260903013504 90 139 4.0 13.0 0.00 0.00 0.00 58 1012.9
20260903013016 91 134 3.0 13.0 0.00 0.00 0.00 57 1012.7
20260903012503 91 129 7.0 17.0 0.00 0.00 0.00 56 1012.7
20260903012007 91 124 7.0 17.0 0.00 0.00 0.00 56 1012.5
20260903011518 91 117 4.0 16.0 0.00 0.00 0.00 55 1012.5
20260903011007 91 123 6.0 16.0 0.00 0.00 0.00 54 1012.5
20260903010511 92 116 7.0 13.0 0.00 0.00 0.00 54 1012.4
20260903010025 92 119 4.0 13.0 0.00 0.00 0.00 54 1012.4
20260903005511 92 112 5.0 12.0 0.00 0.00 0.00 54 1012.4
20260903005013 92 101 4.0 13.0 0.00 0.00 0.00 54 1012.4
20260903004533 92 129 7.0 13.0 0.00 0.00 0.00 53 1012.4
20260903004012 93 151 5.0 20.0 0.00 0.00 0.00 53 1012.4
20260903003513 93 113 6.0 20.0 0.00 0.00 0.00 53 1012.3
20260903003030 93 107 6.0 14.0 0.00 0.00 0.00 53 1012.3
20260903002519 93 115 8.0 14.0 0.00 0.00 0.00 53 1012.2
20260903002004 94 119 4.0 15.0 0.00 0.00 0.00 53 1012.1
20260903001515 94 118 9.0 15.0 0.00 0.00 0.00 52 1012.1
20260903001008 94 128 7.0 13.0 0.00 0.00 0.00 52 1012.1
20260903000507 94 119 3.0 13.0 0.00 0.00 0.00 52 1012.1
20260903000022 94 102 5.0 13.0 0.00 0.00 0.00 52 1012.2
20260902235513 94 132 4.0 9.0 0.00 0.00 0.00 52 1012.2
20260902235010 94 123 4.0 14.0 0.00 0.00 0.00 52 1012.1
20260902234528 94 90 6.0 14.0 0.00 0.00 0.00 53 1012.1
20260902234013 94 132 3.0 9.0 0.00 0.00 0.00 53 1012.0
20260902233512 94 118 1.0 10.0 0.00 0.00 0.00 53 1012.0
20260902233027 94 123 1.0 11.0 0.00 0.00 0.00 53 1012.0
20260902232514 94 114 5.0 11.0 0.00 0.00 0.00 53 1012.0
20260902232016 94 90 2.0 9.0 0.00 0.00 0.00 54 1012.0
20260902231530 93 106 3.0 8.0 0.00 0.00 0.00 55 1012.0
20260902231019 93 129 3.0 12.0 0.00 0.00 0.00 55 1012.1
20260902230505 93 85 6.0 12.0 0.00 0.00 0.00 55 1012.1
20260902230019 93 80 5.0 10.0 0.00 0.00 0.00 54 1012.1
20260902225508 92 111 2.0 10.0 0.00 0.00 0.00 55 1012.0
20260902225008 92 84 3.0 12.0 0.00 0.00 0.00 55 1012.0
20260902224523 93 92 5.0 13.0 0.00 0.00 0.00 55 1012.0
20260902224012 95 59 6.0 15.0 0.00 0.00 0.00 52 1012.1
20260902223512 97 125 8.0 15.0 0.00 0.00 0.00 49 1012.1
20260902223048 97 98 4.0 11.0 0.00 0.00 0.00 49 1011.9
20260902222514 98 88 3.0 11.0 0.00 0.00 0.00 47 1011.9
20260902222015 99 96 4.0 11.0 0.00 0.00 0.00 46 1011.8
20260902221532 99 91 3.0 11.0 0.00 0.00 0.00 46 1011.8
20260902221015 98 138 5.0 10.0 0.00 0.00 0.00 46 1011.9
20260902220516 98 58 4.0 12.0 0.00 0.00 0.00 46 1011.8
20260902220030 98 123 4.0 12.0 0.00 0.00 0.00 46 1011.9
20260902215515 99 72 5.0 12.0 0.00 0.00 0.00 46 1011.8
20260902215007 99 47 2.0 9.0 0.00 0.00 0.00 46 1012.0
20260902214520 99 94 2.0 13.0 0.00 0.00 0.00 45 1012.0
20260902214009 99 338 4.0 13.0 0.00 0.00 0.00 46 1012.0
20260902213509 99 120 6.0 13.0 0.00 0.00 0.00 46 1012.1
20260902213022 99 84 5.0 10.0 0.00 0.00 0.00 45 1012.1
20260902212513 98 103 3.0 11.0 0.00 0.00 0.00 45 1012.1
20260902212018 98 105 4.0 11.0 0.00 0.00 0.00 45 1012.2
20260902211526 99 84 4.0 11.0 0.00 0.00 0.00 45 1012.2
20260902211014 99 91 1.0 11.0 0.00 0.00 0.00 45 1012.2
20260902210519 99 113 2.0 8.0 0.00 0.00 0.00 46 1012.2
20260902210031 98 86 0.0 9.0 0.00 0.00 0.00 46 1012.3
20260902205515 98 55 2.0 10.0 0.00 0.00 0.00 46 1012.4
20260902205016 98 9 4.0 10.0 0.00 0.00 0.00 46 1012.5
20260902204541 98 93 4.0 10.0 0.00 0.00 0.00 46 1012.5
20260902204019 98 64 3.0 9.0 0.00 0.00 0.00 46 1012.6
20260902203519 98 52 1.0 10.0 0.00 0.00 0.00 45 1012.6
20260902203024 98 59 2.0 10.0 0.00 0.00 0.00 45 1012.8
20260902202511 98 40 2.0 8.0 0.00 0.00 0.00 46 1012.8
20260902202012 98 351 1.0 8.0 0.00 0.00 0.00 47 1012.9
20260902201528 98 61 3.0 10.0 0.00 0.00 0.00 46 1013.0
20260902201012 98 92 1.0 11.0 0.00 0.00 0.00 46 1013.2
20260902200514 98 92 5.0 11.0 0.00 0.00 0.00 46 1013.3
20260902200028 98 70 3.0 8.0 0.00 0.00 0.00 46 1013.4
20260902195515 98 37 2.0 6.0 0.00 0.00 0.00 47 1013.5
20260902195015 97 67 3.0 9.0 0.00 0.00 0.00 48 1013.5
20260902194531 97 334 2.0 9.0 0.00 0.00 0.00 48 1013.7
20260902194018 97 329 3.0 10.0 0.00 0.00 0.00 48 1013.7
20260902193519 97 61 3.0 10.0 0.00 0.00 0.00 48 1013.8
20260902193034 97 313 3.0 10.0 0.00 0.00 0.00 47 1013.8
20260902192518 97 5 3.0 9.0 0.00 0.00 0.00 47 1013.9
20260902192003 97 65 1.0 8.0 0.00 0.00 0.00 47 1014.0
20260902191504 97 90 2.0 10.0 0.00 0.00 0.00 47 1014.1
20260902191004 97 123 2.0 11.0 0.00 0.00 0.00 48 1014.1
20260902190505 97 137 4.0 11.0 0.00 0.00 0.00 48 1014.1
20260902190007 96 128 2.0 7.0 0.00 0.00 0.00 49 1014.2
20260902185503 96 23 0.0 12.0 0.00 0.00 0.00 48 1014.3
20260902185004 96 138 5.0 12.0 0.00 0.00 0.00 49 1014.4
20260902184508 95 62 3.0 10.0 0.00 0.00 0.00 49 1014.5
20260902184004 95 105 0.0 9.0 0.00 0.00 0.00 51 1014.5
20260902183504 95 86 4.0 9.0 0.00 0.00 0.00 50 1014.7
20260902183011 96 44 3.0 8.0 0.00 0.00 0.00 50 1014.8
20260902182504 95 122 1.0 9.0 0.00 0.00 0.00 50 1015.0
20260902182002 95 115 1.0 9.0 0.00 0.00 0.00 50 1015.0
20260902181504 96 96 3.0 9.0 0.00 0.00 0.00 51 1015.2
20260902181003 95 123 1.0 10.0 0.00 0.00 0.00 51 1015.2
20260902180505 95 82 3.0 10.0 0.00 0.00 0.00 51 1015.4
20260902180007 95 122 3.0 8.0 0.00 0.00 0.00 51 1015.5
20260902175504 95 108 3.0 10.0 0.00 0.00 0.00 50 1015.7
20260902175004 94 109 5.0 10.0 0.00 0.00 0.00 53 1015.8
20260902174511 94 153 3.0 10.0 0.00 0.00 0.00 53 1015.9
20260902174003 94 130 3.0 9.0 0.00 0.00 0.00 54 1016.0
20260902173504 94 122 3.0 11.0 0.00 0.00 0.00 54 1016.0
20260902173006 94 119 3.0 11.0 0.00 0.00 0.00 56 1016.1
20260902172505 93 124 1.0 7.0 0.00 0.00 0.00 56 1016.1
20260902172004 92 119 0.0 7.0 0.00 0.00 0.00 58 1016.2
20260902171506 92 323 2.0 7.0 0.00 0.00 0.00 58 1016.4
20260902171003 93 56 3.0 7.0 0.00 0.00 0.00 58 1016.5
20260902170502 92 306 0.0 4.0 0.00 0.00 0.00 60 1016.5
20260902170005 91 88 0.0 8.0 0.00 0.00 0.00 60 1016.6
20260902165502 91 88 2.0 8.0 0.00 0.00 0.00 60 1016.7
20260902165004 91 99 0.0 8.0 0.00 0.00 0.00 60 1016.8
20260902164505 91 86 1.0 8.0 0.00 0.00 0.00 60 1016.8
20260902164003 91 109 0.0 7.0 0.00 0.00 0.00 63 1016.9
20260902163504 90 95 1.0 6.0 0.00 0.00 0.00 62 1016.8
20260902163005 90 129 1.0 7.0 0.00 0.00 0.00 63 1016.9
20260902162504 90 105 1.0 7.0 0.00 0.00 0.00 63 1016.8
20260902162004 90 96 0.0 5.0 0.00 0.00 0.00 62 1017.0
20260902161511 91 53 0.0 5.0 0.00 0.00 0.00 62 1017.0
20260902161004 91 51 0.0 5.0 0.00 0.00 0.00 63 1017.0
20260902160505 91 51 1.0 5.0 0.00 0.00 0.00 63 1017.0
20260902160010 91 178 0.0 3.0 0.00 0.00 0.00 64 1017.0
20260902155505 90 175 0.0 3.0 0.00 0.00 0.00 64 1017.0
20260902155002 90 287 0.0 3.0 0.00 0.00 0.00 64 1017.1
20260902154503 90 148 0.0 7.0 0.00 0.00 0.00 64 1017.0
20260902154003 90 142 1.0 8.0 0.00 0.00 0.00 64 1017.0
20260902153503 90 153 1.0 8.0 0.00 0.00 0.00 65 1017.0
20260902153005 89 136 0.0 4.0 0.00 0.00 0.00 65 1016.9
20260902152504 90 134 1.0 4.0 0.00 0.00 0.00 65 1016.9
20260902152003 89 134 0.0 7.0 0.00 0.00 0.00 66 1016.9
20260902151509 89 135 0.0 8.0 0.00 0.00 0.00 66 1016.9
20260902151004 88 158 0.0 8.0 0.00 0.00 0.00 68 1016.9
20260902150504 88 121 1.0 7.0 0.00 0.00 0.00 68 1016.8
20260902150010 88 133 0.0 5.0 0.00 0.00 0.00 70 1016.8
20260902145506 87 126 1.0 5.0 0.00 0.00 0.00 69 1016.8
20260902145006 88 87 1.0 5.0 0.00 0.00 0.00 68 1016.9
20260902144510 88 128 2.0 5.0 0.00 0.00 0.00 68 1016.8
20260902144004 88 142 0.0 5.0 0.00 0.00 0.00 68 1016.8
20260902143502 88 143 0.0 5.0 0.00 0.00 0.00 68 1016.7
20260902143005 88 162 0.0 2.0 0.00 0.00 0.00 69 1016.7
20260902142504 87 155 0.0 5.0 0.00 0.00 0.00 69 1016.7
20260902142002 87 155 0.0 5.0 0.00 0.00 0.00 70 1016.7
20260902141505 87 155 0.0 6.0 0.00 0.00 0.00 70 1016.7
20260902141008 87 128 2.0 6.0 0.00 0.00 0.00 70 1016.8
20260902140503 86 182 0.0 5.0 0.00 0.00 0.00 71 1016.7
20260902140010 86 180 0.0 5.0 0.00 0.00 0.00 72 1016.7
20260902135504 85 146 0.0 5.0 0.00 0.00 0.00 73 1016.6
20260902135010 85 158 1.0 6.0 0.00 0.00 0.00 74 1016.6
20260902134513 84 160 0.0 8.0 0.00 0.00 0.00 74 1016.5
20260902134006 83 127 1.0 8.0 0.00 0.00 0.00 75 1016.5
20260902133503 83 119 3.0 8.0 0.00 0.00 0.00 74 1016.5
20260902133013 83 130 2.0 5.0 0.00 0.00 0.00 74 1016.5
20260902132509 83 134 0.0 5.0 0.00 0.00 0.00 75 1016.5
20260902132002 82 130 1.0 7.0 0.00 0.00 0.00 75 1016.5
20260902131502 82 121 0.0 9.0 0.00 0.00 0.00 76 1016.5
20260902131004 81 130 3.0 9.0 0.00 0.00 0.00 76 1016.5
20260902130503 81 106 3.0 8.0 0.00 0.00 0.00 76 1016.5
20260902130009 81 115 3.0 9.0 0.00 0.00 0.00 77 1016.4
20260902125503 80 118 5.0 9.0 0.00 0.00 0.00 78 1016.4
20260902125004 80 146 0.0 8.0 0.00 0.00 0.00 79 1016.3
20260902124514 79 161 0.0 5.0 0.00 0.00 0.00 80 1016.3
20260902124011 79 174 0.0 3.0 0.00 0.00 0.00 81 1016.3
20260902123506 78 174 0.0 1.0 0.00 0.00 0.00 82 1016.3
20260902123014 78 174 0.0 5.0 0.00 0.00 0.00 83 1016.2
20260902122507 78 174 0.0 5.0 0.00 0.00 0.00 83 1016.2
20260902122007 77 189 0.0 4.0 0.00 0.00 0.00 83 1016.2
20260902121516 77 190 0.0 2.0 0.00 0.00 0.00 83 1016.2
20260902121008 77 190 0.0 1.0 0.00 0.00 0.00 82 1016.2
20260902120503 77 190 0.0 1.0 0.00 0.00 0.00 82 1016.2
20260902120004 78 190 0.0 0.0 0.00 0.00 0.00 82 1016.2
20260902115503 78 190 0.0 1.0 0.00 0.00 0.00 82 1016.1
20260902115003 78 190 0.0 1.0 0.00 0.00 0.00 82 1016.2
20260902114508 78 190 0.0 1.0 0.00 0.00 0.00 82 1016.3
20260902114004 78 190 0.0 2.0 0.00 0.00 0.00 83 1016.3
20260902113508 78 190 0.0 2.0 0.00 0.00 0.00 83 1016.3
20260902113014 78 190 0.0 1.0 0.00 0.00 0.00 83 1016.3
20260902112507 78 190 0.0 0.0 0.00 0.00 0.00 83 1016.3
20260902112008 78 190 0.0 0.0 0.00 0.00 0.00 83 1016.3
20260902111520 78 190 0.0 0.0 0.00 0.00 0.00 83 1016.3
20260902111006 78 190 0.0 0.0 0.00 0.00 0.00 83 1016.2
20260902110508 78 190 0.0 0.0 0.00 0.00 0.00 83 1016.2
20260902110035 78 190 0.0 0.0 0.00 0.00 0.00 83 1016.2
20260902105508 78 190 0.0 0.0 0.00 0.00 0.00 83 1016.2
20260902105004 78 190 0.0 0.0 0.00 0.00 0.00 82 1016.1
20260902104515 78 190 0.0 0.0 0.00 0.00 0.00 82 1016.1
20260902104002 78 190 0.0 0.0 0.00 0.00 0.00 81 1016.2
20260902103503 79 190 0.0 0.0 0.00 0.00 0.00 81 1016.1
20260902103026 79 190 0.0 0.0 0.00 0.00 0.00 81 1016.1
20260902102506 79 190 0.0 0.0 0.00 0.00 0.00 80 1016.2
20260902102008 79 190 0.0 0.0 0.00 0.00 0.00 80 1016.2
20260902101520 79 190 0.0 0.0 0.00 0.00 0.00 79 1016.1
20260902101008 79 190 0.0 0.0 0.00 0.00 0.00 79 1016.2
20260902100508 79 190 0.0 0.0 0.00 0.00 0.00 79 1016.2
20260902100020 80 190 0.0 0.0 0.00 0.00 0.00 79 1016.2
20260902095510 80 190 0.0 0.0 0.00 0.00 0.00 79 1016.2
20260902095008 80 190 0.0 0.0 0.00 0.00 0.00 79 1016.2
20260902094522 80 190 0.0 0.0 0.00 0.00 0.00 79 1016.2
20260902094008 80 190 0.0 0.0 0.00 0.00 0.00 79 1016.1
20260902093505 80 190 0.0 0.0 0.00 0.00 0.00 79 1016.1
20260902093010 81 190 0.0 0.0 0.00 0.00 0.00 78 1016.1
20260902092503 81 190 0.0 0.0 0.00 0.00 0.00 78 1016.1
20260902092006 81 190 0.0 0.0 0.00 0.00 0.00 77 1015.9
20260902091516 81 190 0.0 0.0 0.00 0.00 0.00 76 1015.9
20260902091006 81 190 0.0 0.0 0.00 0.00 0.00 75 1015.9
20260902090509 81 190 0.0 0.0 0.00 0.00 0.00 74 1015.9
20260902090026 81 190 0.0 0.0 0.00 0.00 0.00 74 1015.9
20260902085508 82 190 0.0 0.0 0.00 0.00 0.00 74 1015.8
20260902085011 82 190 0.0 0.0 0.00 0.00 0.00 73 1015.8
20260902084526 82 190 0.0 0.0 0.00 0.00 0.00 73 1015.8
20260902084009 82 190 0.0 1.0 0.00 0.00 0.00 73 1015.8
20260902083510 82 190 0.0 1.0 0.00 0.00 0.00 73 1015.8
20260902083023 82 190 0.0 1.0 0.00 0.00 0.00 73 1015.8
20260902082508 82 190 0.0 0.0 0.00 0.00 0.00 73 1015.8
20260902082003 83 190 0.0 0.0 0.00 0.00 0.00 73 1015.9
20260902081509 83 190 0.0 0.0 0.00 0.00 0.00 72 1015.8
20260902081006 83 190 0.0 0.0 0.00 0.00 0.00 73 1015.9
20260902080508 83 190 0.0 1.0 0.00 0.00 0.00 73 1015.9
20260902080021 83 190 0.0 1.0 0.00 0.00 0.00 72 1015.9
20260902075508 83 190 0.0 2.0 0.00 0.00 0.00 72 1015.8
20260902075013 83 185 0.0 2.0 0.00 0.00 0.00 72 1015.8
20260902074525 83 185 0.0 1.0 0.00 0.00 0.00 72 1015.9
20260902074009 83 185 0.0 4.0 0.00 0.00 0.00 72 1015.8
20260902073510 83 185 0.0 4.0 0.00 0.00 0.00 72 1015.9
20260902073027 84 190 0.0 3.0 0.00 0.00 0.00 72 1015.9
20260902072510 84 190 0.0 3.0 0.00 0.00 0.00 72 1016.0
20260902072012 84 190 0.0 3.0 0.00 0.00 0.00 71 1016.0
20260902071521 84 182 0.0 4.0 0.00 0.00 0.00 71 1016.0
20260902071003 84 182 0.0 6.0 0.00 0.00 0.00 71 1016.0
20260902070506 84 173 0.0 6.0 0.00 0.00 0.00 71 1016.0
20260902070019 84 165 1.0 6.0 0.00 0.00 0.00 71 1016.0
20260902065507 84 157 0.0 7.0 0.00 0.00 0.00 71 1016.1
20260902065008 84 153 0.0 7.0 0.00 0.00 0.00 70 1016.1
20260902064520 84 159 0.0 6.0 0.00 0.00 0.00 70 1016.1
20260902064007 84 211 0.0 5.0 0.00 0.00 0.00 70 1016.1
20260902063510 85 183 0.0 6.0 0.00 0.00 0.00 70 1016.1
20260902063043 85 201 0.0 6.0 0.00 0.00 0.00 70 1016.1
20260902062512 85 175 0.0 7.0 0.00 0.00 0.00 69 1016.0
20260902062012 85 195 0.0 8.0 0.00 0.00 0.00 69 1015.9
20260902061534 85 200 0.0 8.0 0.00 0.00 0.00 69 1015.9
20260902061012 85 199 0.0 6.0 0.00 0.00 0.00 70 1016.0
20260902060509 85 210 0.0 6.0 0.00 0.00 0.00 70 1016.0
20260902060038 85 190 1.0 7.0 0.00 0.00 0.00 70 1016.0
20260902055506 85 164 0.0 7.0 0.00 0.00 0.00 70 1016.0
20260902055004 85 188 0.0 4.0 0.00 0.00 0.00 69 1016.0
20260902054514 86 182 0.0 4.0 0.00 0.00 0.00 70 1015.9
20260902054009 86 200 0.0 3.0 0.00 0.00 0.00 69 1015.9
20260902053507 86 192 0.0 8.0 0.00 0.00 0.00 69 1015.9
20260902053021 86 193 0.0 8.0 0.00 0.00 0.00 69 1015.9
20260902052512 86 161 0.0 8.0 0.00 0.00 0.00 69 1015.9
20260902052012 86 173 1.0 8.0 0.00 0.00 0.00 68 1015.8
20260902051531 86 159 1.0 10.0 0.00 0.00 0.00 68 1015.7
20260902051009 86 179 3.0 10.0 0.00 0.00 0.00 68 1015.8
20260902050513 86 178 2.0 10.0 0.00 0.00 0.00 67 1015.8
20260902050032 87 177 4.0 9.0 0.00 0.00 0.00 67 1015.8
20260902045513 87 159 1.0 8.0 0.00 0.00 0.00 67 1015.8
20260902045014 87 167 0.0 5.0 0.00 0.00 0.00 67 1015.8
20260902044557 87 167 0.0 5.0 0.00 0.00 0.00 66 1015.7
20260902044008 87 187 0.0 8.0 0.00 0.00 0.00 66 1015.7
20260902043507 87 172 3.0 8.0 0.00 0.00 0.00 65 1015.6
20260902043016 87 133 0.0 8.0 0.00 0.00 0.00 65 1015.6
20260902042508 88 153 2.0 8.0 0.00 0.00 0.00 65 1015.6
20260902042016 88 209 1.0 8.0 0.00 0.00 0.00 65 1015.6
20260902041532 88 176 1.0 8.0 0.00 0.00 0.00 64 1015.5
20260902041015 88 192 0.0 9.0 0.00 0.00 0.00 64 1015.5
20260902040514 88 201 4.0 10.0 0.00 0.00 0.00 64 1015.5
20260902040029 88 165 3.0 10.0 0.00 0.00 0.00 63 1015.5
20260902035503 89 163 1.0 12.0 0.00 0.00 0.00 63 1015.4
20260902035003 89 157 4.0 13.0 0.00 0.00 0.00 62 1015.4
20260902034510 89 159 4.0 13.0 0.00 0.00 0.00 61 1015.3
20260902034004 89 217 4.0 14.0 0.00 0.00 0.00 59 1015.3
20260902033504 89 127 3.0 14.0 0.00 0.00 0.00 59 1015.2
20260902033014 89 128 3.0 7.0 0.00 0.00 0.00 61 1015.2
20260902032511 89 138 0.0 1.0 0.00 0.00 0.00 61 1015.1
20260902032011 89 138 0.0 1.0 0.00 0.00 0.00 60 1015.0
20260902031537 90 138 0.0 0.0 0.00 0.00 0.00 60 1015.0
20260902031012 90 138 0.0 0.0 0.00 0.00 0.00 59 1015.0
20260902030515 90 138 0.0 3.0 0.00 0.00 0.00 58 1014.9
20260902030024 90 138 0.0 5.0 0.00 0.00 0.00 58 1014.9
20260902025512 91 138 2.0 5.0 0.00 0.00 0.00 58 1014.7
20260902025012 91 140 0.0 2.0 0.00 0.00 0.00 58 1014.7
20260902024530 91 140 0.0 5.0 0.00 0.00 0.00 56 1014.7
20260902024007 91 140 0.0 5.0 0.00 0.00 0.00 56 1014.6